User: anonymous   Login
Location: Pegasus Observatory
(35.6569°N, 82.5850°W)
Time: 00:33:15
(UTC-04:00)
Language:

QB50P2 - Orbit

View from above orbital plane
View from above orbital plane
View from above satellite
View from above satellite

Ground track
Ground track

The orbit data is extracted from the following two-line orbital elements,

1 40032U 14033Y   20092.74318018  .00000262  00000-0  34140-4 0  9991
2 40032  97.9031  14.7050 0011609 181.6862 178.4317 14.88625593314095
Epoch (UTC): 01 April 2020 17:50:10
Eccentricity: 0.0011609
inclination: 97.9031°
perigee height: 594 km
apogee height: 610 km
right ascension of ascending node: 14.7050°
argument of perigee: 181.6862°
revolutions per day: 14.88625593
mean anomaly at epoch: 178.4317°
orbit number at epoch: 31409

The dashed part of the orbit path shows where the satellite is in the earth's shadow,  

DLR